User: anonymous   Login
Location: Unspecified
(0.0000°N, 0.0000°E)
Time: 00:15:32
(UTC+00:00)
Language:

Kosmos-2233 - Orbit

View from above orbital plane
View from above orbital plane
View from above satellite
View from above satellite

Ground track
Ground track

The orbit data is extracted from the following two-line orbital elements,

1 22487U 93008A   17326.68639818  .00000018  00000-0  33952-5 0  9997
2 22487  82.9429 342.8351 0037378 214.4858 283.9465 13.75766713240127
Epoch (UTC): 22 November 2017 16:28:24
Eccentricity: 0.0037378
inclination: 82.9429°
perigee height: 951 km
apogee height: 1006 km
right ascension of ascending node: 342.8351°
argument of perigee: 214.4858°
revolutions per day: 13.75766713
mean anomaly at epoch: 283.9465°
orbit number at epoch: 24012

The dashed part of the orbit path shows where the satellite is in the earth's shadow,  

DLR